When you browse on this site, cookies collect data to enhance your experience and personalize the content and advertising you see.
Visit our Privacy Policy to learn more. By continuing to use the site, you agree to this use of cookies and data.
  • In United Kingdom
  • List of Countries
  • For 7 days
  • Water Temperature
  • Satellite Maps
  • Weather Map
  • Weather Widgets
  • user-avatar
    Login

    Hourly Weather Tarin Kowt

    Today, 23 April, Tuesday

    Time Temperature Precipitation Wind Pressure Humidity
    00:00 +21°C° 0.2 mm 1 mps 617 mmHg 34%
    01:00 +21°C° 0.2 mm 1 mps 617 mmHg 37%
    02:00 +20°C° 0.5 mm 1 mps 617 mmHg 40%
    03:00 +20°C° 0.5 mm 1 mps 617 mmHg 43%
    04:00 +19°C° 0 mm 1 mps 616 mmHg 45%
    05:00 +20°C° 0.2 mm 1 mps 617 mmHg 41%
    06:00 +21°C° 0.2 mm 1 mps 617 mmHg 37%
    07:00 +21°C° 0.2 mm 1 mps 618 mmHg 32%
    08:00 +23°C° 0 mm 1 mps 618 mmHg 31%
    09:00 +24°C° 0 mm 1 mps 619 mmHg 30%
    10:00 +25°C° 0 mm 2 mps 619 mmHg 31%
    11:00 +26°C° 0 mm 2 mps 619 mmHg 29%
    12:00 +26°C° 0 mm 3 mps 619 mmHg 27%
    13:00 +27°C° 0 mm 4 mps 619 mmHg 25%
    14:00 +27°C° 0 mm 4 mps 619 mmHg 25%
    15:00 +27°C° 0 mm 4 mps 618 mmHg 24%
    16:00 +28°C° 0 mm 4 mps 618 mmHg 24%
    17:00 +27°C° 0 mm 3 mps 618 mmHg 28%
    18:00 +26°C° 0 mm 2 mps 617 mmHg 33%
    19:00 +25°C° 0 mm 1 mps 617 mmHg 37%
    20:00 +24°C° 0.3 mm 1 mps 617 mmHg 39%
    21:00 +23°C° 0.3 mm 2 mps 617 mmHg 41%
    22:00 +21°C° 0.3 mm 2 mps 617 mmHg 43%
    23:00 +21°C° 0 mm 2 mps 617 mmHg 45%

    Tomorrow, 24 April, Wednesday

    Time Temperature Precipitation Wind Pressure Humidity
    00:00 +20°C° 0 mm 2 mps 616 mmHg 47%
    01:00 +20°C° 0 mm 2 mps 616 mmHg 49%
    02:00 +19°C° 0.1 mm 2 mps 616 mmHg 51%
    03:00 +19°C° 0.1 mm 2 mps 615 mmHg 52%
    04:00 +18°C° 0.1 mm 2 mps 615 mmHg 54%
    05:00 +19°C° 0.1 mm 3 mps 615 mmHg 50%
    06:00 +20°C° 0.1 mm 4 mps 616 mmHg 46%
    07:00 +21°C° 0.1 mm 5 mps 616 mmHg 42%
    08:00 +21°C° 0 mm 6 mps 617 mmHg 38%
    09:00 +22°C° 0 mm 6 mps 617 mmHg 33%
    10:00 +23°C° 0 mm 7 mps 618 mmHg 29%
    11:00 +24°C° 0 mm 8 mps 618 mmHg 25%
    12:00 +24°C° 0 mm 9 mps 618 mmHg 22%
    13:00 +24°C° 0 mm 9 mps 618 mmHg 18%
    14:00 +24°C° 0 mm 9 mps 617 mmHg 18%
    15:00 +23°C° 0 mm 9 mps 617 mmHg 18%
    16:00 +22°C° 0 mm 9 mps 617 mmHg 18%
    17:00 +21°C° 0 mm 7 mps 617 mmHg 20%
    18:00 +20°C° 0 mm 6 mps 617 mmHg 22%
    19:00 +18°C° 0 mm 4 mps 617 mmHg 23%
    20:00 +17°C° 0 mm 3 mps 617 mmHg 26%
    21:00 +17°C° 0 mm 3 mps 617 mmHg 29%
    22:00 +16°C° 0 mm 2 mps 617 mmHg 32%
    23:00 +15°C° 0 mm 2 mps 617 mmHg 33%

    Day after tomorrow, 25 April, Thursday

    Time Temperature Precipitation Wind Pressure Humidity
    00:00 +15°C° 0 mm 2 mps 617 mmHg 34%
    01:00 +14°C° 0 mm 1 mps 616 mmHg 35%
    02:00 +13°C° 0 mm 1 mps 616 mmHg 35%
    03:00 +13°C° 0 mm 1 mps 616 mmHg 35%
    04:00 +12°C° 0 mm 1 mps 616 mmHg 35%
    05:00 +13°C° 0 mm 1 mps 616 mmHg 30%
    06:00 +14°C° 0 mm 1 mps 617 mmHg 26%
    07:00 +15°C° 0 mm 1 mps 618 mmHg 22%
    08:00 +16°C° 0 mm 2 mps 618 mmHg 20%
    09:00 +17°C° 0 mm 2 mps 619 mmHg 19%
    10:00 +18°C° 0 mm 3 mps 619 mmHg 17%
    11:00 +19°C° 0 mm 4 mps 619 mmHg 17%
    12:00 +20°C° 0 mm 4 mps 620 mmHg 16%
    13:00 +20°C° 0 mm 5 mps 620 mmHg 16%
    14:00 +20°C° 0 mm 5 mps 619 mmHg 16%
    15:00 +20°C° 0 mm 6 mps 619 mmHg 16%
    16:00 +20°C° 0 mm 6 mps 619 mmHg 16%
    17:00 +19°C° 0 mm 5 mps 619 mmHg 19%
    18:00 +18°C° 0 mm 3 mps 618 mmHg 22%
    19:00 +17°C° 0 mm 2 mps 618 mmHg 25%
    20:00 +16°C° 0 mm 2 mps 618 mmHg 27%
    21:00 +16°C° 0 mm 1 mps 618 mmHg 29%
    22:00 +15°C° 0 mm 1 mps 618 mmHg 32%
    23:00 +14°C° 0 mm 1 mps 618 mmHg 34%

    26 April, Friday

    Time Temperature Precipitation Wind Pressure Humidity
    00:00 +13°C° 0 mm 0 mps 617 mmHg 36%
    01:00 +12°C° 0 mm 0 mps 617 mmHg 38%
    02:00 +12°C° 0 mm 0 mps 617 mmHg 38%
    03:00 +11°C° 0 mm 0 mps 616 mmHg 38%
    04:00 +11°C° 0 mm 0 mps 616 mmHg 39%
    05:00 +12°C° 0 mm 0 mps 617 mmHg 34%
    06:00 +13°C° 0 mm 0 mps 617 mmHg 29%
    07:00 +14°C° 0 mm 0 mps 618 mmHg 24%
    08:00 +15°C° 0 mm 0 mps 619 mmHg 22%
    09:00 +16°C° 0 mm 0 mps 619 mmHg 20%
    10:00 +19°C° 0 mm 1 mps 620 mmHg 18%
    11:00 +20°C° 0 mm 1 mps 619 mmHg 17%
    12:00 +20°C° 0 mm 2 mps 619 mmHg 16%
    13:00 +21°C° 0 mm 3 mps 619 mmHg 15%
    14:00 +21°C° 0 mm 3 mps 619 mmHg 15%
    15:00 +21°C° 0 mm 3 mps 619 mmHg 15%
    16:00 +21°C° 0 mm 4 mps 618 mmHg 14%
    17:00 +20°C° 0 mm 3 mps 618 mmHg 17%
    18:00 +19°C° 0 mm 2 mps 618 mmHg 20%
    19:00 +18°C° 0 mm 2 mps 618 mmHg 22%
    20:00 +19°C° 0 mm 1 mps 618 mmHg 25%
    21:00 +18°C° 0 mm 1 mps 618 mmHg 28%
    22:00 +18°C° 0 mm 1 mps 618 mmHg 30%
    23:00 +16°C° 0 mm 1 mps 618 mmHg 32%

    27 April, Saturday

    Time Temperature Precipitation Wind Pressure Humidity
    00:00 +15°C° 0 mm 0 mps 617 mmHg 33%
    01:00 +14°C° 0 mm 0 mps 617 mmHg 34%
    02:00 +14°C° 0 mm 0 mps 617 mmHg 34%
    03:00 +14°C° 0 mm 1 mps 616 mmHg 33%
    04:00 +14°C° 0 mm 1 mps 616 mmHg 33%
    05:00 +15°C° 0 mm 1 mps 617 mmHg 30%
    06:00 +16°C° 0 mm 1 mps 618 mmHg 26%
    07:00 +18°C° 0 mm 1 mps 618 mmHg 22%
    08:00 +19°C° 0 mm 1 mps 619 mmHg 21%
    09:00 +20°C° 0 mm 1 mps 619 mmHg 19%
    10:00 +21°C° 0 mm 1 mps 619 mmHg 18%
    11:00 +21°C° 0 mm 2 mps 619 mmHg 17%
    12:00 +22°C° 0 mm 3 mps 619 mmHg 17%
    13:00 +23°C° 0 mm 4 mps 619 mmHg 16%
    14:00 +22°C° 0 mm 4 mps 619 mmHg 16%
    15:00 +22°C° 0 mm 5 mps 618 mmHg 16%
    16:00 +22°C° 0 mm 5 mps 618 mmHg 16%
    17:00 +21°C° 0 mm 4 mps 618 mmHg 19%
    18:00 +20°C° 0 mm 3 mps 618 mmHg 22%
    19:00 +19°C° 0 mm 2 mps 618 mmHg 24%
    20:00 +19°C° 0 mm 2 mps 618 mmHg 27%
    21:00 +18°C° 0 mm 2 mps 618 mmHg 29%
    22:00 +18°C° 0 mm 1 mps 618 mmHg 31%
    23:00 +18°C° 0 mm 1 mps 617 mmHg 33%

    28 April, Sunday

    Time Temperature Precipitation Wind Pressure Humidity
    00:00 +16°C° 0 mm 1 mps 617 mmHg 35%
    01:00 +15°C° 0 mm 1 mps 617 mmHg 36%
    02:00 +15°C° 0 mm 1 mps 616 mmHg 38%
    03:00 +14°C° 0 mm 1 mps 616 mmHg 39%
    04:00 +14°C° 0 mm 1 mps 616 mmHg 40%
    05:00 +15°C° 0 mm 1 mps 617 mmHg 35%
    06:00 +16°C° 0 mm 1 mps 618 mmHg 31%
    07:00 +16°C° 0 mm 0 mps 618 mmHg 27%
    08:00 +19°C° 0 mm 1 mps 619 mmHg 24%
    09:00 +19°C° 0 mm 2 mps 619 mmHg 22%
    10:00 +20°C° 0 mm 2 mps 620 mmHg 20%
    11:00 +21°C° 0 mm 3 mps 619 mmHg 18%
    12:00 +22°C° 0 mm 3 mps 619 mmHg 16%
    13:00 +22°C° 0 mm 4 mps 619 mmHg 15%
    14:00 +22°C° 0 mm 4 mps 619 mmHg 14%
    15:00 +22°C° 0 mm 4 mps 618 mmHg 14%
    16:00 +23°C° 0 mm 4 mps 618 mmHg 13%
    17:00 +21°C° 0 mm 4 mps 618 mmHg 16%
    18:00 +20°C° 0 mm 3 mps 618 mmHg 19%
    19:00 +19°C° 0 mm 2 mps 618 mmHg 21%
    20:00 +18°C° 0 mm 2 mps 618 mmHg 24%
    21:00 +19°C° 0 mm 1 mps 618 mmHg 26%
    22:00 +18°C° 0 mm 1 mps 618 mmHg 28%
    23:00 +16°C° 0 mm 1 mps 617 mmHg 31%
    Show more